[[{"header":{"parameterUnit":"m.s-1","parameterCategory":1,"la1":30.2992,"la2":30.254,"lo1":-89.0895,"lo2":-89.0443,"dy":0.0025,"dx":0.0025,"nx":19,"ny":19,"refTime":"2026-05-13T21:00:00:Z","depth":0,"parameterNumber":2,"parameterNumberName":"U-component_of_WINDS"},"data":[0,0,0,1.3192,1.3194,1.3321,1.3322,1.3472,1.3473,0,0,0,0,0,0,0,0,0,0,0,1.3144,1.3145,1.3192,1.3195,1.3321,1.3322,1.3471,1.3473,0,0,0,0,0,0,0,0,0,0,0,1.3144,1.3144,1.3145,1.3195,1.3321,1.3322,1.3471,1.3381,0,0,0,0,0,0,0,0,0,0,1.326,1.3204,1.3144,1.3145,1.3196,1.3321,1.3322,1.3376,1.3386,1.3408,0,1.3422,0,1.345,1.3482,1.3482,0,0,0,1.3203,1.3196,1.324,1.3145,1.3197,1.3321,1.3267,1.3382,1.3393,1.3421,1.3425,1.3431,1.3452,1.3483,1.3483,1.3578,1.3578,0,0,1.3196,1.3161,1.3232,1.3246,1.3223,1.3262,1.327,1.3389,1.3391,1.3425,1.3434,1.3455,1.3484,1.3485,1.3578,1.3578,0,0,0,1.317,1.3156,1.3197,1.324,1.3263,1.3266,1.3275,1.3386,1.3402,1.3436,1.3456,1.3484,1.3486,1.3578,1.3578,1.3547,0,0,0,1.3166,1.3141,1.3194,1.3174,1.3261,1.3326,1.3269,1.3394,1.3409,1.3456,1.3484,1.3487,1.3578,1.3578,1.3548,1.3538,0,0,0,1.3139,1.3138,1.3153,1.3172,1.3225,1.3325,1.3348,1.3398,1.3421,1.3482,1.3488,1.3578,1.3578,1.3548,1.3539,1.3554,0,0,0,1.3101,1.3123,1.3152,1.3185,1.3224,1.3304,1.3348,1.3409,1.3459,1.3485,1.3578,1.3578,1.3549,1.354,1.3554,1.3559,1.3558,0,0,1.311,1.3123,1.3145,1.3175,1.3241,1.3287,1.3351,1.3429,1.3467,1.354,1.3542,1.3547,1.3539,1.3554,1.3563,1.3562,0,0,0,1.3137,1.3152,1.3178,1.3222,1.3282,1.3334,1.3406,1.3436,1.3499,1.3496,1.3558,1.3554,1.3564,1.3568,1.3567,1.3579,1.3578,1.3578,1.3578,1.3099,1.3147,1.3188,1.3252,1.3295,1.3371,1.3412,1.3465,1.35,1.3515,1.3536,1.3536,1.3539,1.3539,1.355,1.3543,1.3543,1.3543,1.3543,1.3116,1.3147,1.3195,1.3252,1.3304,1.3354,1.343,1.3454,1.351,1.3523,1.3534,1.3544,1.3536,1.3549,1.3541,1.3541,1.3541,1.3542,1.3542,1.3097,1.312,1.3156,1.3228,1.3279,1.3344,1.3396,1.3442,1.3485,1.3496,1.3526,1.3526,1.3533,1.3507,1.3507,1.3507,1.3507,1.3507,1.3507,1.3061,1.3103,1.314,1.3208,1.3245,1.3299,1.3378,1.3417,1.3471,1.3501,1.3501,1.3536,1.3526,1.3522,1.3507,1.3507,1.3507,1.3507,1.3507,1.306,1.3069,1.3125,1.3162,1.3248,1.3297,1.3356,1.3431,1.347,1.3494,1.3529,1.3513,1.353,1.3531,1.3529,1.3517,1.3517,1.3517,1.3517,1.3043,1.3057,1.3127,1.3183,1.3244,1.3304,1.337,1.3434,1.3502,1.353,1.3539,1.354,1.3539,1.3556,1.3557,1.3555,1.355,1.3551,1.3551,1.3046,1.3068,1.3113,1.3179,1.3251,1.3312,1.3377,1.3443,1.3521,1.3553,1.3553,1.3552,1.3554,1.3551,1.358,1.358,1.3578,0,0]},{"header":{"parameterUnit":"m.s-1","parameterCategory":1,"la1":30.2992,"la2":30.254,"lo1":-89.0895,"lo2":-89.0443,"dy":0.0025,"dx":0.0025,"nx":19,"ny":19,"refTime":"2026-05-13T21:00:00:Z","depth":0,"parameterNumber":3,"parameterNumberName":"V-component_of_WINDS"},"data":[0,0,0,-1.6256,-1.6253,-1.6095,-1.6094,-1.5863,-1.5861,0,0,0,0,0,0,0,0,0,0,0,-1.6291,-1.6289,-1.6257,-1.6252,-1.6095,-1.6094,-1.5863,-1.5861,0,0,0,0,0,0,0,0,0,0,0,-1.6292,-1.6289,-1.6287,-1.6252,-1.6095,-1.6094,-1.5864,-1.5992,0,0,0,0,0,0,0,0,0,0,-1.6149,-1.6171,-1.629,-1.6287,-1.6251,-1.6095,-1.6094,-1.5998,-1.5984,-1.5924,0,-1.5872,0,-1.5863,-1.5844,-1.5843,0,0,0,-1.6259,-1.6183,-1.6153,-1.6287,-1.6249,-1.6095,-1.6168,-1.599,-1.5974,-1.5904,-1.5869,-1.5861,-1.586,-1.5842,-1.5841,-1.5488,-1.5486,0,0,-1.6268,-1.6254,-1.6164,-1.6141,-1.6171,-1.6173,-1.6163,-1.5981,-1.5939,-1.5869,-1.5856,-1.5856,-1.584,-1.5839,-1.5489,-1.5487,0,0,0,-1.6288,-1.6259,-1.6234,-1.615,-1.6125,-1.6168,-1.6157,-1.5947,-1.5941,-1.5854,-1.5853,-1.5839,-1.5836,-1.5492,-1.5489,-1.538,0,0,0,-1.6294,-1.6272,-1.6238,-1.6227,-1.6128,-1.6035,-1.6127,-1.5953,-1.5933,-1.5854,-1.5839,-1.5833,-1.5494,-1.549,-1.5388,-1.5328,0,0,0,-1.6305,-1.6273,-1.6247,-1.6227,-1.616,-1.6039,-1.6022,-1.5949,-1.5932,-1.5843,-1.5833,-1.5495,-1.5491,-1.5395,-1.534,-1.5232,0,0,0,-1.6311,-1.6148,-1.6245,-1.6063,-1.6161,-1.5976,-1.6023,-1.5884,-1.5794,-1.5838,-1.5494,-1.5489,-1.5397,-1.5347,-1.5239,-1.5137,-1.5094,0,0,-1.6097,-1.6122,-1.6016,-1.6099,-1.5894,-1.6001,-1.5777,-1.5704,-1.5704,-1.5558,-1.555,-1.5385,-1.5341,-1.5233,-1.4864,-1.483,0,0,0,-1.5943,-1.5867,-1.5816,-1.5735,-1.5681,-1.5628,-1.5593,-1.5567,-1.5445,-1.5629,-1.5319,-1.5292,-1.523,-1.5181,-1.5152,-1.5098,-1.5467,-1.5468,-1.5468,-1.5616,-1.5634,-1.546,-1.5458,-1.5378,-1.5347,-1.5282,-1.524,-1.5274,-1.5201,-1.5156,-1.4931,-1.4874,-1.4852,-1.4796,-1.5106,-1.5105,-1.5105,-1.5105,-1.5304,-1.5197,-1.5256,-1.5108,-1.5125,-1.4997,-1.4961,-1.4991,-1.4872,-1.4965,-1.491,-1.5008,-1.4815,-1.4766,-1.5097,-1.5098,-1.5099,-1.51,-1.51,-1.5089,-1.5041,-1.5018,-1.4905,-1.4814,-1.4817,-1.4703,-1.4721,-1.4736,-1.4683,-1.4637,-1.4639,-1.4641,-1.4661,-1.466,-1.466,-1.4659,-1.4658,-1.4658,-1.4873,-1.4852,-1.4757,-1.4691,-1.4643,-1.4581,-1.4552,-1.4502,-1.4451,-1.4473,-1.4473,-1.4513,-1.4795,-1.4864,-1.4646,-1.4648,-1.4649,-1.4651,-1.4651,-1.4543,-1.4623,-1.4476,-1.4429,-1.4354,-1.4263,-1.4292,-1.4191,-1.4153,-1.4095,-1.4149,-1.4357,-1.4379,-1.4402,-1.4459,-1.4149,-1.4149,-1.4149,-1.4149,-1.436,-1.4378,-1.4233,-1.4157,-1.4084,-1.4097,-1.3925,-1.3901,-1.3886,-1.3863,-1.3912,-1.399,-1.4013,-1.4022,-1.4053,-1.4106,-1.3713,-1.3713,-1.3712,-1.4157,-1.4169,-1.4022,-1.4018,-1.3962,-1.3912,-1.3751,-1.3656,-1.3655,-1.3695,-1.3844,-1.3863,-1.399,-1.4031,-1.4068,-1.4116,-1.4214,0,0]}]]